[[{"header":{"parameterUnit":"m.s-1","parameterCategory":1,"la1":30.2992,"la2":30.254,"lo1":-89.0895,"lo2":-89.0443,"dy":0.0025,"dx":0.0025,"nx":19,"ny":19,"refTime":"2026-03-20T03:00:00:Z","depth":0,"parameterNumber":2,"parameterNumberName":"U-component_of_WINDS"},"data":[0,0,0,1.2671,1.2672,1.2719,1.2719,1.278,1.2781,0,0,0,0,0,0,0,0,0,0,0,1.266,1.266,1.2671,1.2672,1.2718,1.2719,1.278,1.2781,0,0,0,0,0,0,0,0,0,0,0,1.266,1.266,1.2661,1.2672,1.2718,1.2719,1.278,1.2744,0,0,0,0,0,0,0,0,0,0,1.2699,1.2691,1.266,1.2661,1.2673,1.2718,1.2719,1.2742,1.2746,1.2761,0,1.2775,0,1.2779,1.2785,1.2785,0,0,0,1.267,1.2688,1.2698,1.2661,1.2673,1.2718,1.2697,1.2744,1.2749,1.2766,1.2776,1.2778,1.278,1.2786,1.2786,1.2874,1.2874,0,0,1.2668,1.267,1.2695,1.2701,1.2695,1.2696,1.2699,1.2747,1.2758,1.2776,1.2779,1.2781,1.2786,1.2787,1.2874,1.2874,0,0,0,1.2662,1.2668,1.2677,1.2699,1.2707,1.2697,1.27,1.2756,1.2758,1.278,1.2781,1.2786,1.2787,1.2873,1.2874,1.2899,0,0,0,1.266,1.2665,1.2676,1.2678,1.2706,1.2732,1.2708,1.2755,1.276,1.2781,1.2786,1.2788,1.2872,1.2873,1.2897,1.291,0,0,0,1.2656,1.2664,1.2672,1.2678,1.2698,1.2731,1.2737,1.2756,1.2761,1.2785,1.2788,1.2872,1.2873,1.2895,1.2908,1.2932,0,0,0,1.2653,1.2696,1.2672,1.272,1.2697,1.2747,1.2736,1.2773,1.2797,1.2787,1.2873,1.2874,1.2895,1.2906,1.293,1.2952,1.2961,0,0,1.2708,1.2702,1.273,1.2711,1.2765,1.274,1.2797,1.2817,1.2818,1.2855,1.2857,1.2898,1.2907,1.2931,1.3017,1.3025,0,0,0,1.2748,1.2768,1.2782,1.2804,1.282,1.2833,1.2844,1.2851,1.2882,1.2838,1.2914,1.292,1.2934,1.2944,1.295,1.2961,1.2879,1.2879,1.2879,1.283,1.2826,1.2871,1.2873,1.2895,1.2904,1.292,1.2931,1.2924,1.2941,1.2952,1.3004,1.3016,1.3021,1.3032,1.2964,1.2964,1.2965,1.2965,1.2908,1.2935,1.2921,1.2959,1.2955,1.2988,1.2997,1.299,1.3018,1.2997,1.3009,1.2985,1.3029,1.3039,1.2966,1.2966,1.2966,1.2966,1.2966,1.296,1.2971,1.2978,1.3007,1.3029,1.3029,1.3056,1.3052,1.3049,1.3061,1.307,1.3069,1.3067,1.3066,1.3066,1.3066,1.3066,1.3066,1.3066,1.301,1.3016,1.3039,1.3057,1.3068,1.3083,1.309,1.3101,1.3112,1.3107,1.3107,1.3096,1.3035,1.3018,1.3069,1.3069,1.3068,1.3068,1.3068,1.3088,1.3069,1.3104,1.3115,1.3134,1.3154,1.3148,1.317,1.3179,1.3191,1.3177,1.3133,1.3127,1.3122,1.3108,1.3179,1.3179,1.3179,1.3179,1.313,1.3126,1.3159,1.3177,1.3194,1.3191,1.3228,1.3233,1.3235,1.324,1.3229,1.3211,1.3206,1.3203,1.3196,1.3183,1.3271,1.3271,1.3271,1.3176,1.3173,1.3207,1.3208,1.3221,1.3231,1.3265,1.3285,1.3284,1.3275,1.3242,1.3239,1.3209,1.32,1.319,1.318,1.3156,0,0]},{"header":{"parameterUnit":"m.s-1","parameterCategory":1,"la1":30.2992,"la2":30.254,"lo1":-89.0895,"lo2":-89.0443,"dy":0.0025,"dx":0.0025,"nx":19,"ny":19,"refTime":"2026-03-20T03:00:00:Z","depth":0,"parameterNumber":3,"parameterNumberName":"V-component_of_WINDS"},"data":[0,0,0,4.5923,4.5924,4.5945,4.5945,4.5994,4.5994,0,0,0,0,0,0,0,0,0,0,0,4.5932,4.5932,4.5923,4.5924,4.5945,4.5945,4.5993,4.5994,0,0,0,0,0,0,0,0,0,0,0,4.5931,4.5932,4.5933,4.5924,4.5945,4.5945,4.5993,4.5969,0,0,0,0,0,0,0,0,0,0,4.5945,4.5968,4.5932,4.5933,4.5924,4.5945,4.5945,4.5968,4.5971,4.5994,0,4.6019,0,4.6008,4.5999,4.5999,0,0,0,4.5913,4.5965,4.5958,4.5933,4.5925,4.5945,4.5932,4.5969,4.5973,4.5998,4.6019,4.6021,4.6008,4.5999,4.6,4.6169,4.617,0,0,4.5912,4.5943,4.5955,4.5961,4.596,4.5932,4.5933,4.5971,4.5996,4.602,4.6021,4.6009,4.6,4.6,4.6167,4.6169,0,0,0,4.5916,4.5943,4.5934,4.5959,4.5961,4.5933,4.5934,4.5995,4.5989,4.6022,4.601,4.6,4.6001,4.6166,4.6168,4.6261,0,0,0,4.5915,4.5945,4.5934,4.5953,4.5961,4.5979,4.5957,4.5986,4.599,4.6009,4.6,4.6002,4.6164,4.6167,4.6255,4.63,0,0,0,4.5925,4.5946,4.5954,4.5955,4.5965,4.5977,4.5973,4.5986,4.5983,4.5999,4.6002,4.6163,4.6167,4.625,4.6291,4.6351,0,0,0,4.5945,4.6038,4.5956,4.6055,4.5965,4.6035,4.5973,4.6024,4.6049,4.6001,4.6165,4.6168,4.6249,4.6286,4.6346,4.6407,4.6435,0,0,4.608,4.6056,4.6111,4.6038,4.6131,4.603,4.6135,4.6129,4.6103,4.6148,4.6152,4.6257,4.6291,4.635,4.6587,4.661,0,0,0,4.6164,4.6204,4.6222,4.6247,4.6245,4.6245,4.6219,4.6216,4.6253,4.6133,4.6295,4.6314,4.6348,4.6375,4.6395,4.642,4.6182,4.6182,4.6182,4.6399,4.6359,4.6447,4.6409,4.6434,4.6405,4.6421,4.6413,4.6366,4.6405,4.6418,4.6567,4.66,4.6614,4.6642,4.6448,4.6448,4.6449,4.6449,4.6591,4.664,4.6574,4.6636,4.6592,4.6643,4.6619,4.6584,4.6624,4.6554,4.6582,4.6508,4.6641,4.6662,4.6455,4.6454,4.6453,4.6453,4.6452,4.6739,4.6755,4.675,4.678,4.6807,4.6765,4.6807,4.6766,4.6728,4.6756,4.6763,4.6762,4.6753,4.6763,4.6763,4.6764,4.6764,4.6764,4.6765,4.6894,4.6884,4.6924,4.6927,4.6936,4.6943,4.6914,4.6922,4.692,4.6887,4.6887,4.6835,4.6662,4.6618,4.6773,4.6771,4.677,4.6769,4.6769,4.71,4.7046,4.7108,4.7117,4.7115,4.7144,4.7092,4.7111,4.7111,4.7132,4.7074,4.6953,4.6926,4.691,4.6873,4.7084,4.7084,4.7084,4.7084,4.7223,4.7205,4.7257,4.7274,4.7286,4.7244,4.7312,4.729,4.7259,4.7256,4.722,4.7168,4.7154,4.7134,4.7114,4.7079,4.7338,4.7338,4.7338,4.7347,4.7327,4.7394,4.7362,4.7357,4.7354,4.7416,4.7437,4.7391,4.7347,4.7253,4.7242,4.7158,4.7133,4.7087,4.7056,4.6991,0,0]}]]